EUTE 25C (EUTE W5)

导读

EUTE 25C(又称EUTE W5,正式名欧洲通信卫星W5)是欧洲通信卫星组织运营的通信卫星,由阿尔卡特空间公司研发,于协调世界时2002年11月20日,在美国卡纳维拉尔角空军基地由德尔塔4 M+(4,2)火箭发射升空。该卫星定位于地球静止轨道,轨道参数约为35738×35858km,倾角约8.1°,设计寿命12年,发射质量3170千克,属于欧洲通信卫星系列,主要提供通信广播服务。

Basic Information
目录编号:
27554
目录名称:
EUTE 25C (EUTE W5)
国际标识:
2002-051A
轨道中心:
EARTH
卫星名称:
EUTE 25C (EUTE W5)
卫星全名:
--
卫星状态:
在轨 (已飞行8608 天)
发射日期:
2002-11-20 UTC
国别 :
(EUTE)
星等 :
--
Orbit Information
数据来源 国际轨道数据 AOE轨道数据
星历时间 2026-06-15T04:37:01+0800
7小时前
查看轨道信息
2026-06-15T05:00:00+0800
6小时前
查看轨道信息
半长轴 42171.878km 42171.906km
偏心率 0.0014238 0.0014282
轨道倾角 8.973° 8.974°
近地点辐角 337.464° 337.375°
升交点赤经 59.912° 59.912°
平近点角 195.184° 201.031°
近地点 35733.696km 35733.539km
远地点 35853.786km 35853.999km
周期 1436.462分钟 1436.463分钟
每日圈数 1.002463 1.002462
Detailed Information
使用方式:
暂无
2D Orbit Map
3D Orbit Map
Orbit Altitude Analysis Chart
Orbit Inclination Analysis Chart
Orbit Comprehensive Analysis Chart
View Comprehensive Chart